Regional Weather Roundup
Issued by NWS

Home | Current Version | Previous Version | Graphics & Text | Print | Product List | Glossary On
Versions: 1 2 3 4 5 6 7 8 9 10 11 12 13 14 15 16 17 18 19 20 21 22 23 24 25 26 27 28 29 30 31 32 33 34 35 36 37 38 39 40 41 42 43 44 45 46 47 48 49 50
000
ASUS43 KLOT 290700
RWRIL

ILLINOIS REGIONAL WEATHER ROUNDUP
NATIONAL WEATHER SERVICE CHICAGO/ROMEOVILLE IL
200 AM CDT SAT AUG 29 2015

NOTE: "FAIR" INDICATES FEW OR NO CLOUDS BELOW 12,000 FEET WITH NO
SIGNIFICANT WEATHER AND/OR OBSTRUCTIONS TO VISIBILITY.

* THESE STATIONS ARE NOT UNDER NWS QUALITY CONTROL. THEY ALSO MAY NOT
  REPORT WEATHER SUCH AS PRECIPITATION OR FOG.

ILZ001-002-007-009-015-016-024-290800-
NORTHWEST ILLINOIS

CITY           SKY/WX    TMP DP  RH WIND       PRES   REMARKS
MOLINE         CLOUDY    66  62  87 E9        29.97F
STERLING*      CLOUDY    64  63  94 SE8       30.00F
SAVANNA*       RAIN      65  63  91 SE8       29.99F
$$

ILZ003-004-008-010-011-017-018-290800-
NORTH CENTRAL ILLINOIS

CITY           SKY/WX    TMP DP  RH WIND       PRES   REMARKS
ROCKFORD       LGT RAIN  65  62  90 SE10      30.05F
FREEPORT*      RAIN      63  62  96 SE15      30.02F
$$

ILZ005-006-012>014-019>023-290800-
NORTHEAST ILLINOIS

CITY           SKY/WX    TMP DP  RH WIND       PRES   REMARKS
CHICAGO-OHARE  CLOUDY    68  63  84 SE5       30.06F
CHICAGO-MIDWAY CLOUDY    70  58  65 SE7       30.06F
AURORA         CLOUDY    66  62  87 SE6       30.06F
LANSING*       MOCLDY    65  58  78 E3        30.08F
WAUKEGAN       LGT RAIN  64  63  96 E3        30.06F FOG
DUPAGE AIRPORT CLOUDY    67  60  78 SE5       30.05F
WHEELING       CLOUDY    67  63  87 CALM      30.08F
ROMEOVILLE*    CLOUDY    65  59  81 SE6       30.07S
NORTHERLY ISL    N/A     65  60  84 SE5         N/A
$$

LMZ740>746-290800-
SOUTHERN LAKE MICHIGAN

STATION/POSITION SKY/WX   TEMP    WIND        PRES    VSBY  WAVE
                          AIR SEA DIR/SP/G                  HT/PER
                          (F)     (DEG/KT/KT) (MB)    (MI)  (FT/S)
SOUTHERN BUOY              68 68   80/ 12/ 12 1018.2F
WILMETTE HARBOR            63 56  280/  4/  6   N/A           1/ 3
HARRISON CRIB              69     150/  6/  8   N/A
BURNHAM HARBOR             66     170/  3       N/A
BURNS HARBOR               70     160/  7/ 10 1019.0F
MICHIGAN CITY              69     110/  5/  6   N/A
MICHIGAN CITY 6N           70 71  160/  8/ 10   N/A           1
ST. JOSEPH                 70 72  170/ 10/ 10   N/A           1
$$

ILZ025>027-034>036-040-047-049-050-058-095>099-290800-
WEST-CENTRAL ILLINOIS

CITY           SKY/WX    TMP DP  RH WIND       PRES   REMARKS
QUINCY         CLOUDY    69  63  81 S10       29.99S
$$

ILZ028>032-037-038-041>044-048-051>054-059>061-290800-
CENTRAL ILLINOIS

CITY           SKY/WX    TMP DP  RH WIND       PRES   REMARKS
DECATUR        CLOUDY    65  60  84 CALM      30.05F
PEORIA         LGT RAIN  69  61  75 SE3       30.03F
SPRINGFIELD    LGT RAIN  70  63  78 S8        30.04S
TAYLORVILLE    NOT AVBL
$$

ILZ033-039-045-046-055>057-062-063-290800-
EAST-CENTRAL ILLINOIS

CITY           SKY/WX    TMP DP  RH WIND       PRES   REMARKS
CHAMPAIGN      CLOUDY    64  60  87 SE5       30.07S
MATTOON        HAZE      67  59  75 S3        30.06S VSB 1/2
$$

ILZ079-100>102-290800-
SOUTHWEST ILLINOIS

CITY           SKY/WX    TMP DP  RH WIND       PRES   REMARKS
ALTON          CLOUDY    68  63  83 CALM      30.04R
BELLEVILLE     CLOUDY    69  67  96 CALM      30.02S
CAHOKIA*       CLOUDY    71  63  75 CALM      30.03R
SPARTA*        CLOUDY    69  65  87 CALM      30.03F
$$

ILZ064>066-069>071-074>076-080>082-084>086-088>090-092>094-290800-
SOUTH-CENTRAL ILLINOIS

CITY           SKY/WX    TMP DP  RH WIND       PRES   REMARKS
CARBONDALE     CLOUDY    68  65  90 E5        30.03S
MARION         CLOUDY    72  66  83 CALM      30.04S
MT. VERNON     CLOUDY    66  61  82 CALM      30.05S
SALEM*         CLOUDY    72  63  73 CALM      30.04F
$$

ILZ067-068-072-073-078-083-087-091-290800-
SOUTHEAST ILLINOIS

CITY           SKY/WX    TMP DP  RH WIND       PRES   REMARKS
LAWRENCEVILLE  CLOUDY    67  62  84 E5        30.05F
ROBINSON*      CLOUDY    64  62  94 CALM      30.06F
$$

ABBREVIATIONS USED IN REMARKS
   TC - TEMPERATURE IN CELSIUS
  WCI - WIND CHILL INDEX
   HX - HEAT INDEX
  VSB - VISIBILITY
$$




USA.gov is the U.S. government's official web portal to all federal, state and local government web resources and services.